Accueil
METAR-TAF:

METAR-TAF

Aéroports :

Lusaka, Zambie

Aéroport international de Lusaka

latitude: 15-19-51S, longitude: 028-27-09E, altitude: 1152 m

Observation

Le bulletin a été fait il y a 12 heures et 17 minutes, à 17:00 UTC
Vent 6 kt de est
Température 16°C
Humidité 63%
Pression 1024 hPa
Visibilité 10 km ou plus
pas de nuages en-dessous de 1500 mètres et pas de cumulonimbus.

METAR: FLKK 251700Z 10006KT CAVOK 16/09 Q1024

Heure: 07:17 (05:17 UTC)


TAF: absent

Observations et prévisions météorologiques de plus de 4000 aéroports (messages METAR et TAF).

Les stations disponibles sont représentées par des disques jaunes et rouges sur la carte.

Passer la souris dessus pour voir le nom de la station.

Cliquer dessus pour voir les observations et prévisions météorologiques.

Pour changer de carte: cliquez sur les boutons verts avec une croix noire pour zoomer, sur le bouton vert avec un tiret pour effectuer un zoom arrière, ou sur les flèches vertes pour les cartes adjacentes.


METAR-TAF: